Location: Brusselsch Zeekanaal
(50.8667°N, 4.3667°E)
Time: 12:24:43
(UTC+00:00)

Cosmos 2360 Rocket - Pass Details

Date: 08 November 2025
Orbit: 833 x 843 km, 71.0° (Epoch: 10 December)

Event Time Altitude Azimuth Distance (km) Brightness Sun altitude
Exits shadow 03:59:25 48° 339° (NNW) 1,103 2.6 -26.5°
Drops below altitude 10° 04:04:03 10° 24° (NNE) 2,474 4.9 -25.7°
Sets 04:06:35 0° 29° (NNE) 3,411 5.8 -25.3°
